Edinburgh Airport, United Kingdom

10:41 PM BST on July 25, 2017 (GMT +0100)
Edinburgh Airport

Weather History for EGPH - December, 2013

Change the Weather History Date:

Wednesday, December 18, 2013

  Actual Average Record
Temperature  
Mean Temperature 48 °F -  
Max Temperature 53 °F 43 °F 55 °F (2015)
Min Temperature 42 °F 33 °F 17 °F (2010)
Degree Days  
Heating Degree Days 18    
Moisture  
Dew Point 41 °F    
Average Humidity 77    
Maximum Humidity 88    
Minimum Humidity 66    
Precipitation  
Precipitation 0.00 in 0.08 in - ()
Sea Level Pressure  
Sea Level Pressure 29.25 in    
Wind  
Wind Speed 18 mph ()    
Max Wind Speed 34 mph    
Max Gust Speed 50 mph    
Visibility 6.1 miles    
Events Rain    
Averages and records for this station are not official NWS values.
T = Trace of Precipitation, MM = Missing Value Source: Averaged Metar Reports

Daily Weather History Graph

Daily Weather History Graph

Search for Another Location

Airport or City:

Trip Planner

Search our weather history database for the weather conditions in past years. The results will help you decide how hot, cold, wet, or windy it might be!

Date:

Astronomy

Dec. 18, 2013 Rise Set
Actual Time 8:40 AM GMT 3:39 PM GMT
Civil Twilight 7:53 AM GMT 4:26 PM GMT
Nautical Twilight 7:04 AM GMT 5:15 PM GMT
Astronomical Twilight 6:18 AM GMT 6:01 PM GMT
Moon 5:14 PM GMT (12/18) 8:55 AM GMT (12/18)
Length of Visible Light 8h 32m
Length of Day
6h 58m
Full, 99% of the Moon is Illuminated
Dec 18
Full
Dec 25
Last Quarter
Jan 1
New
Jan 8
First Quarter
Jan 16
Full

Hourly Weather History & Observations

Time (GMT) Temp. Windchill Dew Point Humidity Pressure Visibility Wind Dir Wind Speed Gust Speed Precip Events Conditions
12:20 AM 44.6 °F 36.1 °F 33.8 °F 66% 29.71 in 6.2 mi South 21.9 mph - N/A   Scattered Clouds
12:50 AM 44.6 °F 35.9 °F 33.8 °F 66% 29.68 in 6.2 mi South 23.0 mph - N/A   Partly Cloudy
1:20 AM 44.6 °F 36.4 °F 33.8 °F 66% 29.68 in 6.2 mi South 20.7 mph - N/A   Partly Cloudy
1:50 AM 44.6 °F 36.6 °F 33.8 °F 66% 29.65 in 6.2 mi South 19.6 mph - N/A   Partly Cloudy
2:20 AM 44.6 °F 35.9 °F 35.6 °F 71% 29.62 in - South 23.0 mph - N/A   Clear
2:50 AM 44.6 °F 35.1 °F 35.6 °F 71% 29.59 in - South 27.6 mph 39.1 mph N/A   Clear
3:20 AM 42.8 °F 33.1 °F 37.4 °F 81% 29.56 in 6.2 mi South 25.3 mph 38.0 mph N/A Rain Light Rain
3:50 AM 44.6 °F 35.5 °F 37.4 °F 76% 29.56 in 6.2 mi South 25.3 mph 36.8 mph N/A   Scattered Clouds
4:20 AM 44.6 °F 36.4 °F 37.4 °F 76% 29.53 in 6.2 mi South 20.7 mph 32.2 mph N/A   Scattered Clouds
4:50 AM 44.6 °F 36.4 °F 39.2 °F 81% 29.53 in 6.2 mi South 20.7 mph - N/A   Scattered Clouds
5:20 AM 44.6 °F 36.1 °F 39.2 °F 81% 29.53 in 6.2 mi South 21.9 mph - N/A   Mostly Cloudy
5:50 AM 44.6 °F 36.9 °F 39.2 °F 81% 29.50 in 6.2 mi SSW 18.4 mph - N/A   Scattered Clouds
6:20 AM 46.4 °F 38.3 °F 41.0 °F 81% 29.50 in 6.2 mi SSW 23.0 mph 34.5 mph N/A   Scattered Clouds
6:50 AM 46.4 °F 38.5 °F 41.0 °F 81% 29.47 in 6.2 mi SSW 21.9 mph - N/A   Partly Cloudy
7:20 AM 48.2 °F - 41.0 °F 76% 29.44 in 6.2 mi SSW 23.0 mph - N/A   Mostly Cloudy
7:50 AM 48.2 °F - 41.0 °F 76% 29.44 in 6.2 mi SSW 19.6 mph 32.2 mph N/A   Scattered Clouds
8:20 AM 48.2 °F - 41.0 °F 76% 29.44 in 6.2 mi SSW 15.0 mph - N/A   Partly Cloudy
8:50 AM 48.2 °F - 42.8 °F 82% 29.44 in 6.2 mi South 18.4 mph - N/A   Scattered Clouds
9:20 AM 48.2 °F - 42.8 °F 82% 29.44 in 6.2 mi SSW 19.6 mph - N/A   Scattered Clouds
9:50 AM 50.0 °F - 42.8 °F 76% 29.44 in 6.2 mi SSW 15.0 mph - N/A   Scattered Clouds
10:20 AM 50.0 °F - 42.8 °F 76% 29.42 in 6.2 mi SSW 15.0 mph - N/A   Scattered Clouds
10:50 AM 50.0 °F - 44.6 °F 82% 29.42 in 6.2 mi SSW 12.7 mph - N/A   Scattered Clouds
11:20 AM 50.0 °F - 44.6 °F 82% 29.39 in 6.2 mi SSW 13.8 mph - N/A   Scattered Clouds
11:50 AM 50.0 °F - 44.6 °F 82% 29.36 in 6.2 mi SSW 9.2 mph - N/A   Mostly Cloudy
12:20 PM 51.8 °F - 44.6 °F 76% 29.33 in 6.2 mi SSW 9.2 mph - N/A   Mostly Cloudy
12:50 PM 51.8 °F - 44.6 °F 76% 29.33 in 6.2 mi South 11.5 mph - N/A   Mostly Cloudy
1:20 PM 51.8 °F - 44.6 °F 76% 29.30 in 6.2 mi South 11.5 mph - N/A   Mostly Cloudy
1:50 PM 51.8 °F - 44.6 °F 76% 29.27 in 6.2 mi South 12.7 mph - N/A   Mostly Cloudy
2:20 PM 51.8 °F - 44.6 °F 76% 29.24 in 6.2 mi South 10.4 mph - N/A   Mostly Cloudy
2:50 PM 51.8 °F - 44.6 °F 76% 29.21 in 6.2 mi South 11.5 mph - N/A   Mostly Cloudy
3:20 PM 48.2 °F - 44.6 °F 87% 29.18 in 6.2 mi SSE 10.4 mph - N/A Rain Light Rain
3:50 PM 48.2 °F - 44.6 °F 87% 29.15 in 6.2 mi SSE 8.1 mph - N/A Rain Light Rain
4:20 PM 51.8 °F - 44.6 °F 76% 29.09 in 6.2 mi South 15.0 mph - N/A   Mostly Cloudy
4:50 PM 50.0 °F - 44.6 °F 82% 29.06 in 6.2 mi SE 13.8 mph - N/A   Mostly Cloudy
5:20 PM 50.0 °F - 46.4 °F 87% 29.00 in 5.0 mi SE 13.8 mph - N/A Rain Light Rain
5:50 PM 50.0 °F - 46.4 °F 87% 28.97 in 6.2 mi ESE 11.5 mph - N/A Rain Light Rain
6:20 PM 51.8 °F - 46.4 °F 82% 28.88 in 6.2 mi SE 16.1 mph - N/A   Mostly Cloudy
6:50 PM 53.6 °F - 46.4 °F 77% 28.85 in 6.2 mi SE 17.3 mph 32.2 mph N/A   Mostly Cloudy
7:20 PM 51.8 °F - 48.2 °F 88% 28.82 in 5.0 mi South 19.6 mph 33.4 mph N/A Rain Rain
7:50 PM 51.8 °F - 46.4 °F 82% 28.80 in 5.0 mi SSE 24.2 mph - N/A Rain Rain
8:20 PM 51.8 °F - 46.4 °F 82% 28.74 in 6.2 mi SSE 23.0 mph 38.0 mph N/A Rain Light Rain
8:50 PM 51.8 °F - 46.4 °F 82% 28.74 in 5.0 mi South 26.5 mph 38.0 mph N/A Rain Light Rain
9:20 PM 48.2 °F - 39.2 °F 71% 28.77 in 6.2 mi SSW 31.1 mph 42.6 mph N/A   Unknown
9:50 PM 46.4 °F 37.7 °F 39.2 °F 76% 28.77 in 6.2 mi SSW 26.5 mph 39.1 mph N/A   Scattered Clouds
10:20 PM 46.4 °F 37.0 °F 37.4 °F 71% 28.77 in - SSW 31.1 mph 43.7 mph N/A   Clear
10:50 PM 46.4 °F 36.9 °F 37.4 °F 71% 28.77 in 6.2 mi SSW 32.2 mph - N/A   Partly Cloudy
11:20 PM 44.6 °F 34.1 °F 35.6 °F 71% 28.77 in 6.2 mi SW 34.5 mph 48.3 mph N/A   Partly Cloudy
11:50 PM 44.6 °F 34.2 °F 33.8 °F 66% 28.80 in 6.2 mi SW 33.4 mph 49.5 mph N/A   Partly Cloudy